This is the latest recevied weather packets stored in our database for station/object KD4EED. If no packets are shown the sender has not sent any weather packets the latest 10 day(s).
| Time | Temp. | Humidity | Pressure | Rain* | Wind** | Luminosity | Snow |
|---|---|---|---|---|---|---|---|
| 1788551927 | 28.33° C | 51% | 1010.8 hPa | - | - | 615 W/m² | - |
| 1788551626 | 28.33° C | 51% | 1010.9 hPa | - | - | 612 W/m² | - |
| 1788551325 | 28.33° C | 52% | 1010.9 hPa | - | - | 607 W/m² | - |
| 1788551020 | 28.33° C | 51% | 1010.9 hPa | - | - | 604 W/m² | - |
| 1788550716 | 27.78° C | 52% | 1010.9 hPa | - | - | 598 W/m² | - |
| 1788550411 | 27.78° C | 52% | 1011 hPa | - | - | 594 W/m² | - |
| 1788550106 | 27.78° C | 51% | 1011.1 hPa | - | - | 590 W/m² | - |
| 1788549801 | 27.78° C | 52% | 1011.2 hPa | - | - | 584 W/m² | - |
| 1788549498 | 27.78° C | 52% | 1011.2 hPa | - | - | 578 W/m² | - |
| 1788549194 | 27.78° C | 51% | 1011.3 hPa | - | - | 574 W/m² | - |
| 1788548890 | 28.33° C | 50% | 1011.3 hPa | - | - | 557 W/m² | - |
| 1788548586 | 28.33° C | 51% | 1011.4 hPa | - | - | 556 W/m² | - |
| 1788548282 | 27.78° C | 51% | 1011.4 hPa | - | - | 554 W/m² | - |
| 1788547977 | 28.33° C | 51% | 1011.3 hPa | - | - | 553 W/m² | - |
| 1788547676 | 28.33° C | 50% | 1011.4 hPa | - | - | 545 W/m² | - |
| 1788547372 | 27.78° C | 50% | 1011.4 hPa | - | - | 542 W/m² | - |
| 1788546768 | 27.78° C | 52% | 1011.4 hPa | - | - | 541 W/m² | - |
| 1788546463 | 27.78° C | 51% | 1011.4 hPa | - | - | 536 W/m² | - |
| 1788546164 | 27.22° C | 54% | 1011.4 hPa | - | - | 534 W/m² | - |
| 1788545854 | 27.22° C | 55% | 1011.6 hPa | - | - | 531 W/m² | - |
| 1788545553 | 26.11° C | 56% | 1011.7 hPa | - | - | 540 W/m² | - |
| 1788545249 | 25.56° C | 58% | 1011.6 hPa | - | - | 281 W/m² | - |
| 1788544944 | 25° C | 60% | 1011.7 hPa | - | - | 515 W/m² | - |
| 1788544643 | 24.44° C | 63% | 1011.8 hPa | - | - | 560 W/m² | - |
| 1788544342 | 23.89° C | 64% | 1011.8 hPa | - | - | 545 W/m² | - |
* Rain since midnight (hover to see other rain measurements)
** Current wind speed in m/s (hover to see current wind gust speed)